Location: Unspecified
(35.6961°N, 0.0000°E)
Time: 08:07:24
(UTC+00:00)

Vanguard 2 Rocket - Pass Details

Date: 02 June 2019
Orbit: 555 x 3326 km, 32.9° (Epoch: 25 June)

Event Time Altitude Azimuth Distance (km) Brightness Sun altitude
Rises 01:43:50 0° 226° (SW) 6,416 - -27.0°
Reaches altitude 10° 01:47:50 10° 221° (SW) 5,675 - -26.6°
Exits shadow 01:56:10 34° 205° (SSW) 4,391 9.7 -25.8°
Maximum altitude 02:05:47 54° 150° (SSE) 3,775 9.7 -24.7°
Drops below altitude 10° 02:24:06 10° 80° (E) 5,800 11.6 -22.6°
Sets 02:28:12 0° 77° (ENE) 6,563 12.1 -22.1°
